Location: Praha
(50.0830°N, 14.4670°E)
Time: 05:00:52
(UTC+02:00)

ISS - Pass Details

Date: 10 July 2024
Orbit: 409 x 423 km, 51.6° (Epoch: 24 July)

Event Time Altitude Azimuth Distance (km) Brightness Sun altitude
Rises 01:25:17 0° 276° (W) 2,340 0.1 -17.6°
Reaches altitude 10° 01:27:23 10° 279° (W) 1,479 -0.9 -17.6°
Maximum altitude 01:30:41 64° 3° (N) 459 -3.4 -17.5°
Drops below altitude 10° 01:33:59 10° 86° (E) 1,485 -0.9 -17.5°
Sets 01:36:06 0° 89° (E) 2,350 0.2 -17.4°
